[[{"header":{"parameterUnit":"m.s-1","parameterCategory":1,"la1":30.2992,"la2":30.254,"lo1":-89.0895,"lo2":-89.0443,"dy":0.0025,"dx":0.0025,"nx":19,"ny":19,"refTime":"2026-05-19T09:00:00:Z","depth":0,"parameterNumber":2,"parameterNumberName":"U-component_of_WINDS"},"data":[0,0,0,-4.2545,-4.2548,-4.265,-4.2651,-4.28,-4.2801,0,0,0,0,0,0,0,0,0,0,0,-4.2526,-4.2528,-4.2545,-4.2548,-4.265,-4.2651,-4.2799,-4.2801,0,0,0,0,0,0,0,0,0,0,0,-4.2526,-4.2527,-4.2529,-4.2549,-4.265,-4.2651,-4.2799,-4.2715,0,0,0,0,0,0,0,0,0,0,-4.2613,-4.2606,-4.2527,-4.2529,-4.2549,-4.265,-4.2651,-4.2711,-4.272,-4.2761,0,-4.2801,0,-4.2804,-4.2812,-4.2813,0,0,0,-4.2539,-4.2598,-4.2616,-4.253,-4.255,-4.265,-4.2602,-4.2716,-4.2727,-4.2774,-4.2803,-4.2808,-4.2806,-4.2813,-4.2814,-4.308,-4.3081,0,0,-4.2534,-4.2551,-4.2609,-4.2624,-4.261,-4.2599,-4.2605,-4.2722,-4.2755,-4.2803,-4.2811,-4.2809,-4.2815,-4.2816,-4.3078,-4.308,0,0,0,-4.2523,-4.2547,-4.2561,-4.2618,-4.2635,-4.2602,-4.2609,-4.2749,-4.2753,-4.2812,-4.281,-4.2815,-4.2818,-4.3076,-4.3079,-4.3177,0,0,0,-4.2519,-4.2541,-4.2559,-4.2571,-4.2633,-4.2694,-4.2634,-4.2744,-4.2757,-4.281,-4.2816,-4.2819,-4.3074,-4.3078,-4.317,-4.322,0,0,0,-4.2516,-4.254,-4.2559,-4.2572,-4.2616,-4.2691,-4.2701,-4.2747,-4.2756,-4.2813,-4.282,-4.3073,-4.3077,-4.3164,-4.321,-4.3294,0,0,0,-4.2517,-4.2645,-4.2561,-4.2704,-4.2616,-4.2752,-4.27,-4.28,-4.2861,-4.2816,-4.3075,-4.3079,-4.3162,-4.3204,-4.3288,-4.3368,-4.3403,0,0,-4.2688,-4.2666,-4.2749,-4.2677,-4.2832,-4.2735,-4.2904,-4.2943,-4.2932,-4.3031,-4.3037,-4.3172,-4.3209,-4.3293,-4.3595,-4.3623,0,0,0,-4.2809,-4.2868,-4.2905,-4.2964,-4.2998,-4.303,-4.3041,-4.3056,-4.3139,-4.2987,-4.3226,-4.3247,-4.3295,-4.3332,-4.3356,-4.3396,-4.3097,-4.3096,-4.3096,-4.3074,-4.3055,-4.319,-4.3183,-4.3241,-4.3252,-4.3296,-4.3317,-4.328,-4.3337,-4.3366,-4.3552,-4.3596,-4.3613,-4.3655,-4.3407,-4.3408,-4.3408,-4.3408,-4.3323,-4.3403,-4.3352,-4.3464,-4.3443,-4.3537,-4.3553,-4.3524,-4.3608,-4.3528,-4.357,-4.3483,-4.3645,-4.368,-4.3415,-4.3414,-4.3413,-4.3413,-4.3412,-4.3494,-4.3529,-4.3545,-4.3628,-4.3695,-4.3683,-4.3767,-4.3744,-4.3724,-4.3765,-4.3792,-4.3791,-4.3785,-4.378,-4.3781,-4.3781,-4.3782,-4.3782,-4.3783,-4.3664,-4.3679,-4.3752,-4.38,-4.3834,-4.3878,-4.3891,-4.3924,-4.3956,-4.3933,-4.3933,-4.389,-4.3665,-4.3608,-4.3793,-4.3791,-4.3789,-4.3789,-4.3788,-4.392,-4.3859,-4.3972,-4.4008,-4.4061,-4.4128,-4.41,-4.417,-4.4195,-4.4237,-4.4186,-4.4023,-4.3999,-4.398,-4.3933,-4.419,-4.419,-4.419,-4.419,-4.4064,-4.405,-4.416,-4.4218,-4.4272,-4.4258,-4.4386,-4.4398,-4.4401,-4.4415,-4.4374,-4.431,-4.4292,-4.4278,-4.4253,-4.4208,-4.453,-4.453,-4.4531,-4.422,-4.421,-4.4324,-4.4326,-4.4367,-4.4402,-4.4521,-4.459,-4.458,-4.4544,-4.4425,-4.4411,-4.4307,-4.4274,-4.4234,-4.4195,-4.4113,0,0]},{"header":{"parameterUnit":"m.s-1","parameterCategory":1,"la1":30.2992,"la2":30.254,"lo1":-89.0895,"lo2":-89.0443,"dy":0.0025,"dx":0.0025,"nx":19,"ny":19,"refTime":"2026-05-19T09:00:00:Z","depth":0,"parameterNumber":3,"parameterNumberName":"V-component_of_WINDS"},"data":[0,0,0,1.2394,1.2395,1.2425,1.2425,1.2469,1.247,0,0,0,0,0,0,0,0,0,0,0,1.2388,1.2388,1.2394,1.2395,1.2425,1.2425,1.2469,1.247,0,0,0,0,0,0,0,0,0,0,0,1.2388,1.2388,1.2389,1.2395,1.2425,1.2425,1.2469,1.2444,0,0,0,0,0,0,0,0,0,0,1.2414,1.2411,1.2388,1.2389,1.2395,1.2425,1.2425,1.2443,1.2446,1.2458,0,1.2469,0,1.247,1.2473,1.2473,0,0,0,1.2393,1.2408,1.2414,1.2389,1.2395,1.2425,1.2411,1.2445,1.2448,1.2461,1.2469,1.2471,1.2471,1.2473,1.2473,1.255,1.255,0,0,1.2391,1.2395,1.2412,1.2416,1.2412,1.241,1.2412,1.2446,1.2455,1.2469,1.2472,1.2471,1.2474,1.2474,1.2549,1.255,0,0,0,1.2388,1.2393,1.2398,1.2415,1.242,1.2411,1.2413,1.2453,1.2455,1.2472,1.2472,1.2474,1.2474,1.2549,1.255,1.2577,0,0,0,1.2386,1.2392,1.2398,1.24,1.2419,1.2437,1.242,1.2452,1.2456,1.2472,1.2474,1.2475,1.2548,1.2549,1.2575,1.2589,0,0,0,1.2385,1.2391,1.2397,1.24,1.2414,1.2436,1.244,1.2453,1.2456,1.2473,1.2475,1.2548,1.2549,1.2573,1.2586,1.2611,0,0,0,1.2384,1.2419,1.2397,1.2437,1.2414,1.2453,1.2439,1.2468,1.2486,1.2474,1.2548,1.255,1.2573,1.2585,1.261,1.2633,1.2643,0,0,1.243,1.2425,1.2448,1.2429,1.2474,1.2448,1.2497,1.2509,1.2507,1.2536,1.2537,1.2576,1.2586,1.2611,1.2698,1.2706,0,0,0,1.2464,1.2481,1.2492,1.2509,1.252,1.2531,1.2536,1.2541,1.2566,1.2522,1.2591,1.2597,1.2611,1.2623,1.263,1.2642,1.2555,1.2555,1.2554,1.2534,1.2531,1.257,1.2571,1.2588,1.2594,1.2608,1.2615,1.2605,1.2622,1.263,1.2684,1.2697,1.2702,1.2716,1.2642,1.2643,1.2643,1.2643,1.2603,1.2626,1.2615,1.2648,1.2645,1.2673,1.2681,1.2673,1.2699,1.2677,1.2689,1.2665,1.2711,1.2723,1.2645,1.2644,1.2644,1.2644,1.2644,1.2649,1.266,1.2666,1.2693,1.2714,1.2714,1.274,1.2736,1.2732,1.2744,1.2754,1.2753,1.2753,1.2749,1.2749,1.2749,1.275,1.275,1.275,1.2694,1.2701,1.2724,1.274,1.2752,1.2767,1.2775,1.2787,1.2799,1.2793,1.2793,1.2783,1.2716,1.27,1.2753,1.2752,1.2752,1.2752,1.2751,1.2765,1.2749,1.2785,1.2797,1.2817,1.284,1.2834,1.2859,1.2868,1.2882,1.2869,1.282,1.2814,1.2809,1.2795,1.2869,1.2869,1.2869,1.2869,1.2805,1.2802,1.2838,1.2859,1.2878,1.2878,1.2919,1.2926,1.2931,1.2936,1.2925,1.2907,1.2901,1.2898,1.2891,1.2878,1.2972,1.2972,1.2972,1.2849,1.2848,1.2884,1.2889,1.2906,1.292,1.2959,1.2983,1.2985,1.2976,1.2941,1.2937,1.2907,1.2898,1.2887,1.2876,1.2853,0,0]}]]